Location: Bonny Doon Airfield
(37.0704°N, 122.1252°W)
Time: 09:51:29
(UTC-07:00)

ISS - Pass Details

Date: 11 October 2017
Orbit: 401 x 408 km, 51.6° (Epoch: 19 October)

Event Time Altitude Azimuth Distance (km) Brightness Sun altitude
Rises 18:55:50 0° 323° (NW) 2,322 0.5 -4.6°
Reaches altitude 10° 18:59:17 10° 2° (N) 1,463 -1.1 -5.3°
Maximum altitude 19:00:15 11° 19° (NNE) 1,406 -1.3 -5.5°
Drops below altitude 10° 19:01:13 10° 37° (NE) 1,463 -1.4 -5.7°
Enters shadow 19:02:55 - 60° (ENE) 1,794 -1.1 -6.0°
